Current Weather Conditions: station 63115

sailwx.info

Wind from 340 at 1 knots

Wave height 2.9 meters (9 feet), 7 second period

Air temperature 2.9° C
Visibility: greater than 27.0 NM
Dewpoint -7.0° C

Last reported at 2020-Feb-28 14:00 UTC.
Time now 2020-Feb-28 15:28 UTC

Location: N 61°36' E 001°18'.
View on Google Maps.

See reports from other nearby stations

  
Tides and Currents Weather Stations Pressure Air Temp Water Temp Dewpoint Dewpoint Depression Visibility Wind Speed Wind Dir Waves Ship Positions
date/time (UTC)wind fromknots sea level pressurealtimeterstation pressurevisibilityair tempwater tempwave heightnotes
2020-Feb-28 14:00 340 1 27.0 2.9 2.9
2020-Feb-28 13:00 330 2 27.0 2.9 3.6
2020-Feb-28 12:00 300 9 27.0 1.9 3.2
2020-Feb-28 11:00 340 11 27.0 2.2 3.7
2020-Feb-28 10:00 330 12 27.0 2.7 3.9
2020-Feb-28 09:00 330 13 27.0 2.6 4.3
2020-Feb-28 08:00 330 11 27.0 1.8 4.3
2020-Feb-28 07:00 320 19 27.0 2.2 4.0
2020-Feb-28 06:00 330 8 27.0 2.5 3.5
2020-Feb-28 05:00 320 27 27.0 2.9 3.0
2020-Feb-28 04:00 300 22 27.0 3.8 2.9
2020-Feb-28 03:00 250 13 27.0 4.4 2.8
2020-Feb-28 02:00 280 8 27.0 3.7 3.1
2020-Feb-28 01:00 300 14 27.0 3.8 3.0
2020-Feb-28 00:00 310 14 27.0 4.0 2.9
2020-Feb-27 23:00 310 13 10.8 3.6 3.2
2020-Feb-27 22:00 300 12 27.0 3.7 3.4
2020-Feb-27 21:00 300 9 27.0 4.3 3.3
2020-Feb-27 20:00 250 7 27.0 3.8 3.2
2020-Feb-27 19:00 250 4 10.8 3.6 3.2
2020-Feb-27 18:00 220 4 10.8 3.8 3.1
2020-Feb-27 17:00 220 6 5.4 4.2 3.0
2020-Feb-27 16:00 180 4 27.0 4.7 3.0
2020-Feb-27 15:00 190 9 27.0 5.9 3.1
2020-Feb-27 14:00 180 6 27.0 7.1 3.2
2020-Feb-27 13:00 200 6 27.0 5.8 3.2
2020-Feb-27 12:00 200 11 27.0 6.6 3.1
2020-Feb-27 11:00 170 11 10.8 7.3 3.6
2020-Feb-27 10:00 180 12 10.8 8.5 3.5
2020-Feb-27 09:00 190 12 27.0 7.7 3.7
2020-Feb-27 08:00 210 7 27.0 5.4 3.5
2020-Feb-27 07:00 210 8 27.0 5.7 3.5
2020-Feb-27 06:00 210 9 27.0 5.1 3.1
2020-Feb-27 05:00 230 8 27.0 4.0 3.3
2020-Feb-27 04:00 210 7 27.0 5.1 3.1
2020-Feb-27 03:00 210 6 27.0 4.4 3.3
2020-Feb-27 02:00 230 4 10.8 2.8 2.9
2020-Feb-27 01:00 190 6 27.0 3.9 2.8
2020-Feb-27 00:00 130 2 27.0 5.0 2.9
2020-Feb-26 23:00 200 7 27.0 5.5
2020-Feb-26 22:00 230 5 27.0 5.3 2.6
2020-Feb-26 21:00 260 6 27.0 4.5 2.8
2020-Feb-26 20:00 260 11 27.0 4.1 2.5
2020-Feb-26 19:00 250 11 27.0 4.1 2.2
2020-Feb-26 18:00 250 12 27.0 4.4 2.0
2020-Feb-26 17:00 240 14 27.0 4.2 2.0
2020-Feb-26 16:00 170 15 27.0 7.3 1.9
2020-Feb-26 15:00 160 14 27.0 8.2 1.9